User: anonymous   Login
Location: Iesi
(43.5167°N, 13.2333°E)
Time: 15:25:43
(UTC+00:00)
Language:

Lacrosse 4 Rocket - Orbit

View from above orbital plane
View from above orbital plane
View from above satellite
View from above satellite

Ground track
Ground track

The orbit data is extracted from the following two-line orbital elements,

1 26474U 00047B   20295.48269758  .00000112  00000-0  20595-4 0  9990
2 26474  67.9929  88.7774 0051834  56.0516 304.5538 14.96002609 98172
Epoch (UTC): 21 October 2020 11:35:05
Eccentricity: 0.0051834
inclination: 67.9929°
perigee height: 543 km
apogee height: 615 km
right ascension of ascending node: 88.7774°
argument of perigee: 56.0516°
revolutions per day: 14.96002609
mean anomaly at epoch: 304.5538°
orbit number at epoch: 9817

The dashed part of the orbit path shows where the satellite is in the earth's shadow,  

DLR